Regional Weather Roundup
Issued by NWS

Home | Current Version | Previous Version | Graphics & Text | Print | Product List | Glossary On
Versions: 1 2 3 4 5 6 7 8 9 10 11 12 13 14 15 16 17 18 19 20 21 22 23 24 25 26 27 28 29 30 31 32 33 34 35 36 37 38 39 40 41 42 43 44 45 46 47 48 49
000
ASUS45 KCYS 010210
RWRWY

WYOMING REGIONAL WEATHER ROUNDUP
NATIONAL WEATHER SERVICE CHEYENNE WY
800 PM MDT TUE JUN 30 2015

NOTE:  "FAIR" INDICATES FEW OR NO CLOUDS BELOW 12,000 FEET
WITH NO SIGNIFICANT WEATHER AND/OR OBSTRUCTIONS TO VISIBILITY.

WYZ001-010300-
YELLOWSTONE NATIONAL PARK

CITY           SKY/WX    TMP DP  RH WIND       PRES   REMARKS
LK YELLOWSTONE   N/A     74  45  35 W6G16     30.30S
W YELLOWSTONE  NOT AVBL

$$
WYZ002>013-054>058-071-098>099-010300-
NORTHERN WYOMING

CITY           SKY/WX    TMP DP  RH WIND       PRES   REMARKS
JACKSON        SUNNY     70  61  73 CALM      30.20S
CODY           FAIR      81  48  32 N7        30.06R
GREYBULL       FAIR      92  43  18 N13       29.94R
WORLAND        FAIR      77  60  55 SW10      29.98S
SHERIDAN       FAIR      81  58  45 W9        29.96R
BUFFALO        FAIR      79  53  40 NW8       30.05R
GILLETTE       FAIR      81  54  39 W8        29.96S
NEWCASTLE      NOT AVBL

$$
WYZ014>020-022>026-101>103-010300-
CENTRAL WYOMING

CITY           SKY/WX    TMP DP  RH WIND       PRES   REMARKS
BIG PINEY      FAIR      75  46  35 N16       30.25R
PINEDALE       NOT AVBL
DUBOIS         NOT AVBL
LANDER         FAIR      70  56  61 SW16G29   30.11F
RIVERTON       FAIR      77  52  41 S10       30.13S
CASPER         FAIR      74  54  49 SE3       30.07F
DOUGLAS        FAIR      77  58  51 NW3       30.06F

$$
WYZ021-027>030-104>119-010300-
SOUTHERN WYOMING

CITY           SKY/WX    TMP DP  RH WIND       PRES   REMARKS
EVANSTON       FAIR      83  42  23 N16G22    30.24R
FORT BRIDGER   CLEAR     86  43  22 N16       30.26R
ROCK SPRINGS   MOCLDY    73  56  54 S12       30.20S
RAWLINS        MOCLDY    73  53  49 E8        30.22R
LARAMIE        MOCLDY    66  56  70 N10       30.29R
CHEYENNE       FAIR      68  54  60 W17       30.14R
TORRINGTON     FAIR      82  56  40 N9        29.95R

$$


USA.gov is the U.S. government's official web portal to all federal, state and local government web resources and services.